Location: Crescent
(42.8242°N, 73.7329°W)
Time: 16:49:47
(UTC+00:00)

A-11 Canister half - Visible Passes

Search period start: 16 February 2026 00:00
Search period end: 26 February 2026 00:00
Orbit: 1525 x 1682 km, 47.3° (Epoch: 16 February)

Date Brightness Start Highest point End Pass type
(mag) Time Alt. Az. Time Alt. Az. Time Alt. Az.
16 Feb 9.1 00:07:53 10° W 00:17:11 69° N 00:22:28 30° ENE visible
16 Feb 9.3 02:13:32 10° WNW 02:20:45 58° NW 02:20:45 58° NW visible
16 Feb 11.1 04:18:42 10° WNW 04:19:02 11° WNW 04:19:02 11° WNW visible
16 Feb 9.1 23:46:01 10° W 23:55:19 70° N 00:01:53 22° ENE visible
17 Feb 9.0 01:51:41 10° WNW 02:00:09 72° NNW 02:00:09 72° NNW visible
17 Feb 10.9 03:56:51 10° WNW 03:58:26 16° WNW 03:58:26 16° WNW visible
17 Feb 9.1 23:24:07 10° W 23:33:27 71° N 23:41:17 16° ENE visible
18 Feb 8.8 01:29:50 10° WNW 01:39:10 76° NNE 01:39:33 74° NE visible
18 Feb 10.6 03:35:01 10° WNW 03:37:51 22° WNW 03:37:51 22° WNW visible
18 Feb 9.1 23:02:14 10° W 23:11:35 71° N 23:20:41 11° ENE visible
19 Feb 8.8 01:07:59 10° WNW 01:17:18 74° NNE 01:18:58 62° ENE visible
19 Feb 10.3 03:13:10 10° WNW 03:17:15 30° WNW 03:17:15 30° WNW visible
20 Feb 8.9 00:46:08 10° WNW 00:55:27 73° NNE 00:58:23 49° E visible
20 Feb 9.9 02:51:19 10° WNW 02:56:40 38° W 02:56:40 38° W visible
21 Feb 9.0 00:24:15 10° WNW 00:33:35 72° NNE 00:37:50 37° E visible
21 Feb 9.5 02:29:28 10° WNW 02:36:07 49° W 02:36:07 49° W visible
22 Feb 9.0 00:02:23 10° WNW 00:11:43 71° N 00:17:18 28° E visible
22 Feb 9.1 02:07:38 10° WNW 02:15:35 62° WSW 02:15:35 62° WSW visible
22 Feb 11.2 04:13:51 10° W 04:13:52 10° W 04:13:52 10° W visible
22 Feb 9.0 23:40:31 10° WNW 23:49:51 70° N 23:56:47 20° E visible
23 Feb 8.9 01:45:47 10° WNW 01:55:00 70° SSW 01:55:05 70° SSW visible
23 Feb 10.9 03:51:51 10° W 03:53:22 14° W 03:53:22 14° W visible
23 Feb 9.1 23:18:39 10° WNW 23:27:59 70° N 23:36:19 14° E visible
24 Feb 8.9 01:23:56 10° WNW 01:33:12 73° SSW 01:34:37 64° SSE visible
24 Feb 10.7 03:29:53 10° W 03:32:54 19° W 03:32:54 19° W visible
24 Feb 9.1 22:56:47 10° WNW 23:06:07 69° N 23:15:25 10° E visible
25 Feb 8.9 01:02:06 10° WNW 01:11:23 75° SSW 01:14:11 50° SE visible
25 Feb 10.4 03:07:56 10° WNW 03:12:29 23° WSW 03:12:29 23° WSW visible
